Weather in Zhiguliovsk

Russia / Samara Oblast     53°24′06″N   49°29′40″E
temp.,
°C
wind,
m/s
gust,
m/s
humid.,
%
clouds,
%
prec.,
mm/h
press.,
hPa
HPBL,
m
19 september, sun
sun1901:00+5n24675 0.0 1024167
04:00+4n247097 0.0 1024157
07:00+4n247524 0.0 1025161
10:00+7nnw335718 0.0 1026793
13:00+10nw33445 0.0 10251193
16:00+10nw3339100 0.0 10251209
19:00+9n2346100 0.0 1025293
22:00+8ne235059 0.0 1025154
20 september, mon
mon2001:00+7e345757 0.0 1025132
04:00+6e346090 0.0 1026130
07:00+6e3562100 0.0 1025181
10:00+9e4449100 0.0 1026573
13:00+11e3440100 0.0 10251014
16:00+12e4538100 0.0 10241101
19:00+11ene4744100 0.0 1024467
22:00+10e51148100 0.0 1024429
21 september, tue
tue2101:00+9e61250100 0.0 1024385
04:00+9ese51050100 0.0 1023336
07:00+8ese51051100 0.0 1023399
10:00+9e51050100 0.1 1023501
13:00+9e71251100 0.1 1022452
16:00+10ese61148100 0.2 1021577
19:00+9ese61259100 0.1 1020432
22:00+9ese61268100 0.1 1019358
22 september, wed
wed2201:00+10e51263100 0.0 1018338
04:00+10e51160100 0.0 1018356
07:00+11ese5115799 0.0 1017386
10:00+12se61177100 0.1 1018506
13:00+11se71290100 1.1 1019624
16:00+10se71291100 3.6 1019468
19:00+10se61191100 1.4 1020441
22:00+10ese61188100 1.8 1020345
23 september, thu
thu2301:00+10ese6127882 0.0 1020335
04:00+11se61370100 0.0 1021351
07:00+11se61365100 0.0 1021424
10:00+13se61270100 0.0 1022439
13:00+12sse51177100 0.2 1023517
16:00+12se4871100 0.4 1023405
19:00+10sse51175100 0.4 1024686
22:00+9se61281100 0.9 1023517